Weather History for Wheeler AAF, HI

Change the Weather History Date:

Wednesday, February 20, 2013

  Actual Average Record
Temperature  
Mean Temperature 68 °F -  
Max Temperature 73 °F 74 °F 82 °F (2004)
Min Temperature 62 °F 61 °F 59 °F (2008)
Cooling Degree Days 2    
Growing Degree Days 18 (Base 50)    
Moisture  
Dew Point 61 °F    
Average Humidity 83    
Maximum Humidity 94    
Minimum Humidity 61    
Precipitation  
Precipitation 0.14 in - - ()
Sea Level Pressure  
Sea Level Pressure 30.11 in    
Wind  
Wind Speed 5 mph (NE)    
Max Wind Speed 22 mph    
Max Gust Speed 29 mph    
Visibility 10 miles    
Events Rain    
Averages and records for this station are not official NWS values.
T = Trace of Precipitation, MM = Missing Value Source: NWS Daily Summary

Daily Weather History Graph

Daily Weather History Graph

Search for Another Location

Airport:

Trip Planner

Search our weather history database for the weather conditions in past years. The results will help you decide how hot, cold, wet, or windy it might be!

Date:

Astronomy

Feb. 20, 2013 Rise Set
Actual Time 6:59 AM HST 6:32 PM HST
Civil Twilight 6:36 AM HST 6:55 PM HST
Nautical Twilight 6:10 AM HST 7:21 PM HST
Astronomical Twilight 5:44 AM HST 7:47 PM HST
Moon 2:24 PM HST (2/20) 3:07 AM HST (2/20)
Length of Visible Light 12h 18m
Length of Day
11h 33m
Waxing Gibbous, 77% of the Moon is Illuminated
Feb 20
Waxing Gibbous
Feb 25
Full
Mar 4
Last Quarter
Mar 11
New
Mar 19
First Quarter

Hourly Weather History & Observations

Time (HST) Temp. Dew Point Humidity Pressure Visibility Wind Dir Wind Speed Gust Speed Precip Events Conditions
12:00 AM 64.4 °F 60.8 °F 88% 30.10 in 10.0 mi Calm Calm - N/A   Light Drizzle
12:08 AM 64.4 °F 60.8 °F 88% 30.10 in 10.0 mi West 3.5 mph - N/A   Partly Cloudy
12:26 AM 62.6 °F 60.8 °F 94% 30.11 in 10.0 mi Calm Calm - N/A   Scattered Clouds
12:28 AM 64.4 °F 60.8 °F 88% 30.10 in 10.0 mi Calm Calm - N/A   Light Drizzle
12:39 AM 64.4 °F 60.8 °F 88% 30.10 in 10.0 mi Calm Calm - N/A   Partly Cloudy
12:55 AM 63.0 °F 60.3 °F 91% 30.09 in 10.0 mi WNW 4.6 mph - 0.00 in   Clear
12:57 AM 62.6 °F 60.8 °F 94% 30.09 in 10.0 mi NW 4.6 mph - N/A   Light Drizzle
1:37 AM 62.6 °F 60.8 °F 94% 30.09 in 10.0 mi Calm Calm - N/A   Partly Cloudy
1:43 AM 62.6 °F 60.8 °F 94% 30.10 in 10.0 mi NNE 3.5 mph - N/A Rain Light Rain
1:55 AM 64.4 °F 61.5 °F 90% 30.09 in 4.0 mi ENE 4.6 mph - 0.04 in Rain Light Rain
2:03 AM 64.4 °F 60.8 °F 88% 30.09 in 10.0 mi Calm Calm - N/A   Scattered Clouds
2:21 AM 62.6 °F 60.8 °F 94% 30.09 in 10.0 mi West 4.6 mph - N/A   Light Drizzle
2:42 AM 64.4 °F 60.8 °F 88% 30.07 in 10.0 mi East 4.6 mph - N/A   Partly Cloudy
2:52 AM 64.4 °F 60.8 °F 88% 30.07 in 10.0 mi Variable 4.6 mph - N/A   Light Drizzle
2:55 AM 64.4 °F 61.2 °F 89% 30.07 in 10.0 mi Variable 4.6 mph - 0.02 in   Light Drizzle
3:16 AM 64.4 °F 60.8 °F 88% 30.07 in 10.0 mi Variable 4.6 mph - N/A   Scattered Clouds
3:18 AM 64.4 °F 60.8 °F 88% 30.07 in 10.0 mi Calm Calm - N/A   Light Drizzle
3:52 AM 64.4 °F 60.8 °F 88% 30.06 in 10.0 mi NW 3.5 mph - N/A   Light Drizzle
3:55 AM 64.0 °F 60.6 °F 89% 30.06 in 10.0 mi WNW 5.8 mph - 0.03 in   Light Drizzle
4:00 AM 64.4 °F 60.8 °F 88% 30.07 in 10.0 mi WNW 3.5 mph - N/A   Partly Cloudy
4:04 AM 64.4 °F 60.8 °F 88% 30.06 in 10.0 mi NNW 4.6 mph - N/A   Light Drizzle
4:15 AM 64.4 °F 60.8 °F 88% 30.06 in 10.0 mi Variable 5.8 mph - N/A   Partly Cloudy
4:22 AM 64.4 °F 60.8 °F 88% 30.06 in 10.0 mi ENE 9.2 mph - N/A Rain Light Rain
4:50 AM 64.4 °F 60.8 °F 88% 30.07 in 10.0 mi NE 6.9 mph - N/A   Clear
4:55 AM 64.4 °F 60.4 °F 87% 30.07 in 10.0 mi NNE 6.9 mph - 0.01 in   Clear
4:56 AM 64.4 °F 60.8 °F 88% 30.07 in 10.0 mi NNE 6.9 mph - N/A Rain Light Rain
5:15 AM 64.4 °F 60.8 °F 88% 30.07 in 10.0 mi ENE 8.1 mph - N/A   Clear
5:23 AM 64.4 °F 60.8 °F 88% 30.07 in 10.0 mi NE 8.1 mph - N/A   Light Drizzle
5:45 AM 64.4 °F 60.8 °F 88% 30.08 in 10.0 mi ENE 13.8 mph - N/A   Partly Cloudy
5:48 AM 64.4 °F 60.8 °F 88% 30.08 in 10.0 mi NE 12.7 mph - N/A   Light Drizzle
5:55 AM 64.4 °F 60.4 °F 87% 30.09 in 10.0 mi ENE 10.4 mph - 0.00 in Rain Light Rain
6:01 AM 64.4 °F 60.8 °F 88% 30.09 in 10.0 mi ENE 10.4 mph - N/A   Clear
6:03 AM 64.4 °F 60.8 °F 88% 30.09 in 10.0 mi ENE 11.5 mph - N/A Rain Light Rain
6:14 AM 64.4 °F 60.8 °F 88% 30.09 in 10.0 mi ENE 9.2 mph - N/A   Clear
6:37 AM 64.4 °F 60.8 °F 88% 30.10 in 9.0 mi NE 11.5 mph - N/A   Drizzle
6:55 AM 64.6 °F 60.3 °F 86% 30.11 in 10.0 mi Variable 3.5 mph - 0.01 in   Partly Cloudy
7:08 AM 62.6 °F 59.0 °F 88% 30.12 in 10.0 mi NW 5.8 mph - N/A Rain Light Rain
7:26 AM 62.6 °F 59.0 °F 88% 30.12 in 10.0 mi West 6.9 mph - N/A   Partly Cloudy
7:30 AM 62.6 °F 60.8 °F 94% 30.12 in 10.0 mi WSW 5.8 mph - N/A Rain Light Rain
7:41 AM 64.4 °F 60.8 °F 88% 30.12 in 10.0 mi Calm Calm - N/A   Partly Cloudy
7:48 AM 64.4 °F 60.8 °F 88% 30.13 in 10.0 mi Calm Calm - N/A   Light Drizzle
7:55 AM 64.4 °F 60.8 °F 88% 30.14 in 10.0 mi Calm Calm - 0.01 in   Light Drizzle
8:01 AM 64.4 °F 60.8 °F 88% 30.13 in 10.0 mi Variable 3.5 mph - N/A   Clear
8:55 AM 68.2 °F 62.2 °F 81% 30.15 in 10.0 mi North 4.6 mph - 0.00 in   Partly Cloudy
9:06 AM 68.0 °F 62.6 °F 83% 30.15 in 10.0 mi Calm Calm - N/A   Light Drizzle
9:24 AM 69.8 °F 62.6 °F 78% 30.15 in 10.0 mi Variable 5.8 mph - N/A   Partly Cloudy
9:55 AM 68.7 °F 61.7 °F 78% 30.16 in 10.0 mi NNE 5.8 mph - 0.00 in   Mostly Cloudy
10:04 AM 68.0 °F 60.8 °F 78% 30.16 in 10.0 mi NNE 8.1 mph - N/A   Light Drizzle
10:14 AM 69.8 °F 62.6 °F 78% 30.16 in 10.0 mi North 6.9 mph - N/A   Mostly Cloudy
10:40 AM 69.8 °F 62.6 °F 78% 30.16 in 10.0 mi ENE 11.5 mph - N/A   Scattered Clouds
10:49 AM 69.8 °F 62.6 °F 78% 30.16 in 10.0 mi NNE 12.7 mph - N/A   Light Drizzle
10:55 AM 69.4 °F 62.4 °F 78% 30.16 in 10.0 mi NNE 8.1 mph - 0.00 in   Light Drizzle
11:03 AM 69.8 °F 62.6 °F 78% 30.16 in 10.0 mi East 8.1 mph - N/A   Scattered Clouds
11:09 AM 69.8 °F 62.6 °F 78% 30.16 in 10.0 mi Variable 5.8 mph - N/A   Drizzle
11:28 AM 69.8 °F 62.6 °F 78% 30.15 in 10.0 mi NE 6.9 mph - N/A   Scattered Clouds
11:45 AM 69.8 °F 62.6 °F 78% 30.14 in 9.0 mi ENE 8.1 mph - N/A   Light Drizzle
11:55 AM 69.3 °F 62.6 °F 79% 30.14 in 6.0 mi Variable 4.6 mph - 0.00 in Rain Light Rain
12:01 PM 69.8 °F 62.6 °F 78% 30.14 in 10.0 mi NE 8.1 mph - N/A   Scattered Clouds
12:13 PM 69.8 °F 62.6 °F 78% 30.14 in 10.0 mi NE 9.2 mph - N/A   Light Drizzle
12:23 PM 69.8 °F 62.6 °F 78% 30.14 in 4.0 mi Variable 3.5 mph - N/A Rain Light Rain
12:44 PM 69.8 °F 64.4 °F 83% 30.13 in 10.0 mi Variable 6.9 mph - N/A   Partly Cloudy
12:45 PM 69.8 °F 64.4 °F 83% 30.13 in 10.0 mi ENE 8.1 mph - N/A   Scattered Clouds
12:54 PM 69.8 °F 62.6 °F 78% 30.13 in 9.0 mi ENE 11.5 mph - N/A Rain Light Rain
12:55 PM 69.6 °F 63.3 °F 80% 30.13 in 9.0 mi ENE 9.2 mph - 0.01 in   Light Drizzle
1:45 PM 71.6 °F 64.4 °F 78% 30.10 in 10.0 mi ENE 18.4 mph 24.2 mph N/A   Partly Cloudy
1:46 PM 71.6 °F 64.4 °F 78% 30.10 in 10.0 mi NE 17.3 mph 24.2 mph N/A   Light Drizzle
1:55 PM 70.5 °F 64.0 °F 80% 30.09 in 10.0 mi ENE 18.4 mph - 0.01 in   Light Drizzle
2:07 PM 71.6 °F 62.6 °F 73% 30.09 in 10.0 mi NE 12.7 mph - N/A   Clear
2:55 PM 73.0 °F 61.7 °F 67% 30.08 in 10.0 mi East 19.6 mph 25.3 mph 0.00 in   Partly Cloudy
3:55 PM 73.2 °F 60.1 °F 63% 30.08 in 10.0 mi NE 21.9 mph 28.8 mph N/A   Clear
4:55 PM 71.8 °F 57.7 °F 61% 30.09 in 10.0 mi NE 8.1 mph - N/A   Partly Cloudy
5:55 PM 69.8 °F 57.6 °F 65% 30.10 in 10.0 mi NE 8.1 mph - N/A   Mostly Cloudy
6:55 PM 68.5 °F 58.1 °F 69% 30.11 in 10.0 mi NE 5.8 mph - N/A   Scattered Clouds
7:55 PM 68.0 °F 58.1 °F 71% 30.13 in 10.0 mi ENE 6.9 mph 16.1 mph N/A   Scattered Clouds
8:55 PM 68.0 °F 57.2 °F 68% 30.14 in 10.0 mi Variable 6.9 mph - N/A   Scattered Clouds
9:55 PM 68.0 °F 57.6 °F 69% 30.14 in 10.0 mi NNE 10.4 mph - N/A   Mostly Cloudy
10:55 PM 67.5 °F 57.4 °F 70% 30.13 in 10.0 mi NE 9.2 mph - N/A   Partly Cloudy
11:55 PM 67.1 °F 57.2 °F 70% 30.12 in 10.0 mi NNE 9.2 mph - N/A   Clear